Location: Dunedin
(45.8900°S, 170.5000°E)
Time: 13:25:25
(UTC+12:00)

ISS - Pass Details

Date: 15 April 2024
Orbit: 409 x 414 km, 51.6° (Epoch: 20 May)

Event Time Altitude Azimuth Distance (km) Brightness Sun altitude
Rises 20:09:29 0° 304° (NW) 2,397 0.8 -23.0°
Reaches altitude 10° 20:11:35 10° 306° (NW) 1,536 -0.4 -23.4°
Enters shadow 20:13:38 33° 312° (NW) 749 -2.2 -23.7°
